QPF
0.00 0.00 0.00 0.00 0.00 0.00 0.00 0.00 0.00 0.00 0.00 0.00 0.00 0.00 0.00 0.00 0.00 0.00 0.00 0.00 0.00 0.00 0.00 0.00 0.00 0.00 0.00 0.00 0.00 0.00 0.00 0.00 0.00 0.00 0.00 0.00 0.00 0.00 0.00 0.00 0.00 0.00 0.00 0.01
0.00 0.00 0.00 0.00 0.00 0.00 0.00 0.00 0.00 0.00 0.00 0.00 0.00 0.01 0.01 0.01 0.00 0.00 0.01 0.01 0.01 0.02 0.02 0.01 0.01 0.01 0.01 0.00 0.00 0.01 0.00 0.00 0.00 0.00 0.00 0.00 0.00 0.00 0.00 0.00 0.00 0.00 0.00 0.00
0.00 0.00 0.00 0.00 0.00 0.00 0.00 0.00 0.00 0.01 0.01 0.02 0.02 0.03 0.05 0.07 0.08 0.08 0.07 0.06 0.04 0.03 0.01 0.01 0.00 0.00 0.00 0.00 0.00 0.00 0.00 0.00 0.00 0.00 0.00 0.01 0.01 0.01 0.01 0.00 0.00 0.00 0.01 0.00
0.00 0.00 0.00 0.00 0.00 0.00 0.00 0.00 0.01 0.03 0.05 0.07 0.10 0.15 0.21 0.24 0.18 0.09 0.04 0.02 0.01 0.00 0.00 0.00 0.00 0.00 0.00 0.00 0.00 0.00 0.00 0.00 0.01 0.01 0.01 0.02 0.03 0.02 0.02 0.01 0.00 0.00 0.00 0.00
0.00 0.00 0.00 0.00 0.00 0.01 0.01 0.01 0.04 0.10 0.15 0.18 0.18 0.13 0.09 0.06 0.03 0.01 0.01 0.00 0.00 0.00 0.00 0.00 0.00 0.00 0.00 0.00 0.00 0.00 0.01 0.03 0.05 0.05 0.05 0.06 0.07 0.07 0.06 0.04 0.02 0.01 0.00 0.00
0.00 0.00 0.00 0.00 0.02 0.06 0.06 0.08 0.12 0.12 0.09 0.05 0.02 0.01 0.00 0.00 0.00 0.00 0.00 0.00 0.00 0.00 0.00 0.00 0.00 0.00 0.00 0.00 0.00 0.00 0.01 0.03 0.05 0.08 0.09 0.09 0.10 0.11 0.10 0.08 0.05 0.02 0.00 0.00
0.00 0.00 0.00 0.00 0.01 0.03 0.05 0.07 0.03 0.01 0.01 0.00 0.00 0.00 0.00 0.00 0.00 0.00 0.00 0.00 0.00 0.00 0.00 0.00 0.00 0.00 0.00 0.00 0.00 0.00 0.00 0.01 0.02 0.05 0.09 0.11 0.12 0.13 0.14 0.13 0.10 0.04 0.01 0.00
0.00 0.01 0.01 0.00 0.00 0.00 0.00 0.00 0.00 0.00 0.00 0.00 0.00 0.00 0.00 0.00 0.00 0.00 0.00 0.00 0.00 0.00 0.00 0.00 0.00 0.00 0.00 0.00 0.00 0.00 0.00 0.01 0.02 0.04 0.10 0.13 0.13 0.14 0.16 0.16 0.16 0.09 0.02 0.00
0.00 0.01 0.00 0.00 0.00 0.00 0.00 0.00 0.00 0.00 0.00 0.00 0.00 0.00 0.00 0.00 0.00 0.00 0.00 0.00 0.00 0.00 0.00 0.00 0.00 0.00 0.00 0.00 0.00 0.00 0.00 0.01 0.03 0.04 0.13 0.24 0.23 0.18 0.18 0.19 0.20 0.14 0.04 0.01
0.00 0.00 0.00 0.00 0.00 0.00 0.00 0.00 0.00 0.00 0.00 0.00 0.00 0.00 0.00 0.00 0.00 0.00 0.00 0.00 0.00 0.00 0.00 0.00 0.00 0.00 0.00 0.00 0.00 0.00 0.00 0.00 0.02 0.05 0.17 0.37 0.43 0.35 0.28 0.25 0.24 0.18 0.06 0.02
0.00 0.00 0.00 0.00 0.00 0.00 0.00 0.00 0.00 0.00 0.00 0.00 0.00 0.00 0.00 0.00 0.00 0.00 0.00 0.00 0.00 0.00 0.00 0.00 0.00 0.00 0.00 0.00 0.00 0.00 0.00 0.00 0.01 0.05 0.15 0.35 0.48 0.47 0.40 0.36 0.33 0.25 0.10 0.02
0.00 0.00 0.00 0.00 0.00 0.00 0.00 0.00 0.00 0.00 0.00 0.00 0.00 0.00 0.00 0.00 0.00 0.00 0.00 0.00 0.00 0.00 0.00 0.00 0.00 0.00 0.00 0.00 0.00 0.00 0.00 0.01 0.02 0.04 0.12 0.30 0.50 0.56 0.47 0.40 0.38 0.31 0.15 0.04
0.00 0.00 0.00 0.00 0.00 0.00 0.00 0.00 0.00 0.00 0.00 0.00 0.00 0.00 0.00 0.00 0.00 0.00 0.00 0.00 0.00 0.00 0.00 0.00 0.00 0.00 0.00 0.00 0.00 0.00 0.01 0.01 0.01 0.03 0.06 0.18 0.42 0.63 0.62 0.45 0.38 0.29 0.14 0.04
0.00 0.00 0.00 0.00 0.00 0.00 0.00 0.00 0.00 0.00 0.00 0.00 0.00 0.00 0.00 0.00 0.00 0.00 0.01 0.01 0.01 0.02 0.01 0.01 0.01 0.01 0.01 0.01 0.01 0.00 0.00 0.00 0.00 0.01 0.03 0.10 0.30 0.54 0.69 0.59 0.42 0.25 0.11 0.04
0.00 0.00 0.00 0.00 0.00 0.00 0.00 0.00 0.00 0.00 0.00 0.00 0.00 0.00 0.00 0.01 0.01 0.01 0.02 0.02 0.03 0.03 0.03 0.03 0.03 0.02 0.01 0.02 0.02 0.01 0.00 0.00 0.00 0.00 0.01 0.05 0.21 0.43 0.59 0.58 0.40 0.27 0.14 0.04
0.00 0.00 0.00 0.00 0.00 0.00 0.00 0.00 0.00 0.00 0.00 0.00 0.00 0.00 0.01 0.02 0.03 0.03 0.02 0.03 0.04 0.05 0.05 0.06 0.05 0.04 0.03 0.03 0.03 0.01 0.00 0.00 0.00 0.00 0.00 0.03 0.12 0.31 0.47 0.50 0.37 0.27 0.18 0.06
0.00 0.00 0.00 0.00 0.00 0.00 0.00 0.00 0.00 0.00 0.00 0.00 0.01 0.02 0.04 0.07 0.07 0.06 0.05 0.04 0.05 0.05 0.07 0.09 0.09 0.07 0.07 0.06 0.04 0.02 0.01 0.00 0.00 0.00 0.01 0.03 0.09 0.22 0.37 0.41 0.31 0.23 0.18 0.09
0.00 0.00 0.00 0.00 0.00 0.00 0.00 0.00 0.00 0.00 0.01 0.02 0.05 0.05 0.07 0.11 0.13 0.12 0.08 0.05 0.05 0.06 0.08 0.11 0.11 0.09 0.07 0.05 0.02 0.01 0.00 0.00 0.00 0.01 0.01 0.04 0.10 0.19 0.29 0.32 0.24 0.19 0.17 0.10
0.00 0.00 0.00 0.00 0.00 0.00 0.00 0.00 0.00 0.01 0.02 0.06 0.07 0.06 0.08 0.11 0.15 0.15 0.10 0.07 0.08 0.08 0.08 0.07 0.07 0.05 0.04 0.03 0.02 0.01 0.00 0.00 0.00 0.01 0.02 0.04 0.11 0.17 0.21 0.20 0.15 0.12 0.10 0.06
0.00 0.00 0.00 0.00 0.00 0.00 0.00 0.00 0.00 0.01 0.04 0.08 0.08 0.06 0.07 0.11 0.16 0.17 0.14 0.11 0.10 0.09 0.08 0.07 0.04 0.02 0.01 0.01 0.01 0.00 0.00 0.00 0.01 0.02 0.03 0.04 0.08 0.14 0.13 0.11 0.07 0.05 0.04 0.03
0.00 0.00 0.00 0.00 0.00 0.00 0.00 0.00 0.00 0.02 0.06 0.08 0.07 0.05 0.08 0.12 0.16 0.19 0.20 0.19 0.16 0.14 0.12 0.10 0.06 0.03 0.02 0.01 0.01 0.00 0.00 0.01 0.02 0.03 0.03 0.04 0.06 0.08 0.07 0.05 0.03 0.02 0.02 0.01
0.00 0.00 0.00 0.00 0.00 0.00 0.00 0.00 0.00 0.02 0.05 0.06 0.05 0.06 0.09 0.14 0.17 0.18 0.19 0.24 0.28 0.27 0.24 0.16 0.10 0.06 0.03 0.02 0.01 0.00 0.01 0.02 0.03 0.05 0.04 0.03 0.04 0.04 0.03 0.02 0.01 0.01 0.01 0.00
0.00 0.00 0.00 0.00 0.00 0.00 0.00 0.00 0.00 0.01 0.02 0.03 0.04 0.06 0.09 0.14 0.18 0.22 0.24 0.24 0.32 0.38 0.33 0.24 0.19 0.13 0.06 0.02 0.01 0.01 0.02 0.04 0.09 0.09 0.05 0.03 0.02 0.02 0.02 0.02 0.01 0.00 0.00 0.00
0.00 0.00 0.00 0.00 0.00 0.00 0.00 0.00 0.00 0.00 0.00 0.01 0.02 0.02 0.05 0.11 0.14 0.18 0.24 0.28 0.32 0.35 0.30 0.21 0.18 0.13 0.08 0.04 0.02 0.04 0.10 0.17 0.16 0.09 0.03 0.02 0.01 0.01 0.01 0.01 0.00 0.00 0.00 0.00
0.00 0.00 0.00 0.00 0.00 0.00 0.00 0.00 0.00 0.00 0.00 0.00 0.01 0.01 0.02 0.05 0.10 0.16 0.21 0.28 0.37 0.42 0.36 0.25 0.17 0.12 0.09 0.07 0.07 0.14 0.22 0.19 0.12 0.04 0.01 0.00 0.00 0.00 0.00 0.00 0.00 0.00 0.00 0.00
0.00 0.00 0.00 0.00 0.00 0.00 0.00 0.00 0.00 0.00 0.00 0.00 0.01 0.01 0.01 0.01 0.03 0.07 0.12 0.17 0.28 0.37 0.36 0.24 0.13 0.11 0.11 0.12 0.13 0.14 0.12 0.07 0.03 0.01 0.00 0.00 0.00 0.00 0.00 0.00 0.00 0.00 0.00 0.00
0.00 0.00 0.00 0.00 0.00 0.00 0.00 0.00 0.00 0.00 0.00 0.00 0.01 0.02 0.02 0.01 0.01 0.02 0.04 0.08 0.14 0.19 0.20 0.16 0.09 0.08 0.08 0.08 0.06 0.04 0.03 0.02 0.01 0.00 0.00 0.00 0.00 0.00 0.00 0.00 0.00 0.00 0.00 0.00
MSLP
1015.10 1015.30 1015.59 1015.97 1016.43 1016.95 1017.47 1017.95 1018.34 1018.61 1018.74 1018.72 1018.58 1018.32 1018.00 1017.62 1017.22 1016.80 1016.36 1015.91 1015.43 1014.93 1014.39 1013.84 1013.26 1012.69 1012.12 1011.57 1011.05 1010.56 1010.09 1009.66 1009.26 1008.89 1008.57 1008.31 1008.11 1007.99 1007.93 1007.94 1008.00 1008.08 1008.17 1008.23
1015.44 1015.67 1015.95 1016.30 1016.72 1017.18 1017.65 1018.09 1018.47 1018.75 1018.91 1018.94 1018.85 1018.64 1018.34 1017.96 1017.53 1017.06 1016.55 1016.03 1015.49 1014.93 1014.37 1013.80 1013.23 1012.67 1012.11 1011.56 1011.02 1010.49 1009.97 1009.46 1008.97 1008.52 1008.13 1007.81 1007.58 1007.44 1007.41 1007.46 1007.57 1007.74 1007.91 1008.07
1015.99 1016.25 1016.53 1016.86 1017.22 1017.61 1018.01 1018.38 1018.70 1018.94 1019.06 1019.07 1018.96 1018.72 1018.39 1017.97 1017.48 1016.94 1016.38 1015.80 1015.22 1014.64 1014.08 1013.53 1012.99 1012.46 1011.94 1011.41 1010.87 1010.33 1009.77 1009.22 1008.67 1008.17 1007.72 1007.36 1007.10 1006.96 1006.93 1007.00 1007.16 1007.37 1007.60 1007.84
1016.78 1017.04 1017.31 1017.59 1017.90 1018.21 1018.51 1018.77 1018.98 1019.11 1019.15 1019.06 1018.86 1018.55 1018.14 1017.64 1017.09 1016.49 1015.88 1015.27 1014.67 1014.10 1013.56 1013.05 1012.56 1012.09 1011.61 1011.13 1010.62 1010.08 1009.53 1008.95 1008.39 1007.86 1007.38 1007.00 1006.72 1006.56 1006.52 1006.59 1006.75 1006.98 1007.24 1007.52
1017.74 1017.98 1018.21 1018.43 1018.65 1018.86 1019.03 1019.16 1019.23 1019.21 1019.10 1018.88 1018.56 1018.13 1017.62 1017.05 1016.42 1015.78 1015.13 1014.50 1013.91 1013.37 1012.87 1012.41 1011.98 1011.57 1011.15 1010.72 1010.26 1009.76 1009.23 1008.68 1008.12 1007.59 1007.11 1006.71 1006.41 1006.23 1006.16 1006.21 1006.35 1006.56 1006.83 1007.11
1018.78 1018.97 1019.13 1019.26 1019.37 1019.45 1019.47 1019.44 1019.34 1019.16 1018.89 1018.52 1018.06 1017.51 1016.90 1016.24 1015.56 1014.88 1014.21 1013.59 1013.01 1012.50 1012.05 1011.64 1011.27 1010.92 1010.57 1010.20 1009.80 1009.35 1008.87 1008.36 1007.84 1007.33 1006.86 1006.46 1006.15 1005.94 1005.84 1005.84 1005.94 1006.12 1006.35 1006.63
1019.77 1019.88 1019.95 1019.97 1019.95 1019.88 1019.75 1019.55 1019.28 1018.93 1018.49 1017.98 1017.39 1016.73 1016.04 1015.31 1014.58 1013.88 1013.20 1012.58 1012.03 1011.54 1011.13 1010.76 1010.44 1010.14 1009.85 1009.54 1009.20 1008.82 1008.41 1007.96 1007.49 1007.03 1006.59 1006.20 1005.88 1005.64 1005.50 1005.45 1005.49 1005.62 1005.82 1006.09
1020.62 1020.63 1020.58 1020.48 1020.31 1020.09 1019.80 1019.44 1019.01 1018.51 1017.94 1017.30 1016.60 1015.86 1015.10 1014.33 1013.57 1012.84 1012.16 1011.54 1010.99 1010.51 1010.11 1009.77 1009.47 1009.21 1008.96 1008.71 1008.43 1008.13 1007.79 1007.42 1007.02 1006.62 1006.22 1005.85 1005.52 1005.26 1005.08 1004.98 1004.97 1005.06 1005.24 1005.50
1021.24 1021.14 1020.97 1020.74 1020.43 1020.06 1019.63 1019.13 1018.57 1017.94 1017.26 1016.52 1015.75 1014.95 1014.14 1013.34 1012.55 1011.80 1011.11 1010.47 1009.91 1009.41 1009.00 1008.65 1008.35 1008.10 1007.89 1007.68 1007.46 1007.23 1006.98 1006.69 1006.38 1006.04 1005.69 1005.35 1005.03 1004.76 1004.54 1004.41 1004.36 1004.42 1004.59 1004.87
1021.62 1021.41 1021.12 1020.75 1020.32 1019.82 1019.27 1018.65 1017.99 1017.27 1016.51 1015.72 1014.90 1014.06 1013.22 1012.39 1011.58 1010.80 1010.06 1009.39 1008.78 1008.24 1007.78 1007.40 1007.08 1006.83 1006.62 1006.45 1006.29 1006.13 1005.96 1005.76 1005.53 1005.26 1004.97 1004.67 1004.37 1004.09 1003.87 1003.72 1003.66 1003.72 1003.90 1004.21
1021.76 1021.45 1021.05 1020.58 1020.03 1019.43 1018.78 1018.08 1017.34 1016.57 1015.77 1014.94 1014.09 1013.23 1012.37 1011.50 1010.65 1009.82 1009.03 1008.29 1007.61 1007.01 1006.48 1006.04 1005.69 1005.41 1005.21 1005.06 1004.95 1004.86 1004.76 1004.65 1004.49 1004.30 1004.07 1003.81 1003.54 1003.28 1003.07 1002.92 1002.87 1002.95 1003.17 1003.53
1021.72 1021.32 1020.83 1020.26 1019.63 1018.95 1018.23 1017.48 1016.70 1015.90 1015.08 1014.23 1013.37 1012.48 1011.59 1010.68 1009.78 1008.88 1008.02 1007.19 1006.43 1005.73 1005.13 1004.63 1004.23 1003.93 1003.72 1003.60 1003.54 1003.50 1003.47 1003.43 1003.35 1003.22 1003.05 1002.83 1002.59 1002.36 1002.17 1002.05 1002.04 1002.15 1002.42 1002.84
1021.56 1021.08 1020.51 1019.88 1019.18 1018.45 1017.69 1016.91 1016.11 1015.30 1014.46 1013.61 1012.72 1011.81 1010.88 1009.92 1008.95 1007.98 1007.02 1006.10 1005.25 1004.47 1003.79 1003.23 1002.79 1002.47 1002.27 1002.18 1002.15 1002.17 1002.20 1002.22 1002.20 1002.12 1001.99 1001.82 1001.61 1001.41 1001.25 1001.16 1001.19 1001.35 1001.68 1002.16
1021.32 1020.78 1020.15 1019.46 1018.73 1017.97 1017.19 1016.40 1015.59 1014.77 1013.93 1013.06 1012.15 1011.21 1010.22 1009.20 1008.15 1007.10 1006.06 1005.05 1004.11 1003.26 1002.53 1001.93 1001.47 1001.15 1000.97 1000.89 1000.91 1000.97 1001.05 1001.11 1001.13 1001.10 1001.00 1000.85 1000.67 1000.49 1000.36 1000.31 1000.37 1000.58 1000.96 1001.50
1021.03 1020.44 1019.77 1019.05 1018.30 1017.53 1016.74 1015.95 1015.15 1014.33 1013.47 1012.58 1011.64 1010.65 1009.60 1008.51 1007.39 1006.26 1005.14 1004.06 1003.06 1002.16 1001.40 1000.79 1000.33 1000.03 999.88 999.84 999.89 999.99 1000.10 1000.19 1000.24 1000.21 1000.13 999.99 999.82 999.67 999.56 999.53 999.63 999.88 1000.30 1000.88
1020.70 1020.08 1019.39 1018.66 1017.90 1017.13 1016.35 1015.57 1014.76 1013.93 1013.06 1012.15 1011.16 1010.12 1009.01 1007.85 1006.65 1005.45 1004.27 1003.14 1002.11 1001.20 1000.44 999.85 999.42 999.16 999.04 999.05 999.13 999.26 999.39 999.49 999.53 999.51 999.42 999.28 999.11 998.96 998.87 998.87 998.99 999.27 999.71 1000.31
1020.34 1019.70 1019.00 1018.27 1017.53 1016.77 1016.00 1015.22 1014.42 1013.58 1012.69 1011.73 1010.70 1009.59 1008.42 1007.19 1005.93 1004.68 1003.46 1002.31 1001.28 1000.38 999.65 999.10 998.72 998.51 998.44 998.49 998.60 998.74 998.88 998.97 999.00 998.96 998.85 998.70 998.53 998.38 998.30 998.31 998.46 998.76 999.21 999.82
1019.96 1019.31 1018.62 1017.91 1017.19 1016.45 1015.69 1014.92 1014.11 1013.25 1012.32 1011.32 1010.23 1009.07 1007.83 1006.54 1005.24 1003.95 1002.71 1001.56 1000.54 999.68 999.00 998.50 998.18 998.02 998.00 998.08 998.21 998.36 998.49 998.56 998.57 998.50 998.38 998.21 998.04 997.90 997.83 997.86 998.03 998.34 998.81 999.42
1019.58 1018.94 1018.28 1017.59 1016.88 1016.16 1015.42 1014.65 1013.82 1012.94 1011.97 1010.92 1009.77 1008.54 1007.25 1005.91 1004.57 1003.25 1002.01 1000.87 999.88 999.06 998.43 997.98 997.72 997.60 997.62 997.71 997.85 998.00 998.11 998.16 998.14 998.06 997.92 997.75 997.59 997.47 997.42 997.49 997.69 998.03 998.51 999.11
1019.22 1018.61 1017.98 1017.31 1016.64 1015.93 1015.20 1014.41 1013.57 1012.65 1011.64 1010.53 1009.33 1008.04 1006.69 1005.31 1003.94 1002.60 1001.35 1000.23 999.27 998.49 997.89 997.49 997.26 997.17 997.20 997.30 997.43 997.55 997.64 997.67 997.64 997.55 997.41 997.26 997.13 997.05 997.05 997.17 997.41 997.78 998.29 998.90
1018.94 1018.36 1017.75 1017.12 1016.46 1015.76 1015.03 1014.23 1013.36 1012.40 1011.34 1010.18 1008.92 1007.58 1006.18 1004.76 1003.36 1002.01 1000.76 999.64 998.70 997.93 997.36 996.97 996.75 996.67 996.69 996.77 996.88 996.98 997.04 997.06 997.02 996.94 996.83 996.72 996.64 996.62 996.69 996.87 997.18 997.60 998.14 998.77
1018.74 1018.20 1017.61 1017.00 1016.35 1015.66 1014.91 1014.09 1013.19 1012.19 1011.08 1009.87 1008.56 1007.18 1005.74 1004.29 1002.86 1001.50 1000.24 999.12 998.18 997.41 996.84 996.44 996.20 996.09 996.08 996.14 996.21 996.28 996.33 996.33 996.30 996.25 996.18 996.13 996.13 996.19 996.35 996.61 996.98 997.46 998.03 998.68
1018.64 1018.12 1017.56 1016.96 1016.31 1015.61 1014.84 1014.00 1013.06 1012.02 1010.87 1009.62 1008.28 1006.86 1005.39 1003.92 1002.48 1001.10 999.84 998.71 997.76 996.97 996.37 995.95 995.67 995.52 995.46 995.46 995.50 995.53 995.56 995.57 995.56 995.54 995.53 995.55 995.63 995.79 996.03 996.37 996.81 997.34 997.95 998.61
1018.63 1018.13 1017.58 1016.97 1016.32 1015.59 1014.80 1013.93 1012.96 1011.89 1010.71 1009.44 1008.07 1006.64 1005.17 1003.69 1002.25 1000.87 999.60 998.47 997.49 996.69 996.05 995.57 995.24 995.04 994.92 994.87 994.86 994.86 994.87 994.88 994.90 994.92 994.97 995.07 995.23 995.46 995.79 996.19 996.69 997.25 997.87 998.53
1018.67 1018.17 1017.61 1017.00 1016.32 1015.58 1014.76 1013.86 1012.87 1011.78 1010.59 1009.32 1007.96 1006.54 1005.08 1003.62 1002.20 1000.84 999.58 998.44 997.45 996.62 995.95 995.43 995.04 994.77 994.60 994.49 994.44 994.42 994.41 994.43 994.46 994.52 994.62 994.78 995.00 995.29 995.66 996.11 996.63 997.20 997.81 998.44
1018.71 1018.20 1017.63 1017.00 1016.30 1015.53 1014.69 1013.77 1012.77 1011.69 1010.52 1009.26 1007.93 1006.55 1005.14 1003.73 1002.35 1001.02 999.79 998.67 997.69 996.84 996.15 995.59 995.16 994.84 994.62 994.47 994.37 994.32 994.30 994.32 994.36 994.44 994.57 994.76 995.01 995.33 995.71 996.16 996.67 997.21 997.78 998.36
1018.71 1018.19 1017.59 1016.93 1016.21 1015.43 1014.58 1013.66 1012.67 1011.61 1010.47 1009.26 1008.00 1006.68 1005.35 1004.01 1002.70 1001.44 1000.26 999.18 998.22 997.39 996.69 996.12 995.66 995.31 995.05 994.87 994.75 994.67 994.64 994.64 994.68 994.77 994.90 995.08 995.33 995.63 995.99 996.39 996.85 997.33 997.82 998.32
Thickness
5698 5700 5698 5694 5693 5691 5680 5668 5655 5656 5643 5631 5629 5629 5627 5627 5628 5629 5629 5627 5626 5625 5625 5625 5626 5628 5628 5627 5628 5628 5631 5635 5639 5644 5647 5647 5647 5645 5642 5638 5635 5632 5629 5626
5698 5701 5696 5689 5686 5682 5671 5661 5653 5639 5623 5619 5619 5619 5617 5615 5614 5614 5613 5611 5608 5608 5609 5608 5609 5611 5614 5614 5615 5615 5616 5619 5624 5630 5635 5638 5638 5637 5636 5633 5629 5627 5625 5621
5677 5686 5687 5669 5661 5662 5643 5632 5627 5618 5607 5607 5606 5604 5600 5597 5595 5595 5596 5594 5592 5591 5591 5592 5593 5594 5596 5598 5600 5601 5602 5603 5606 5612 5619 5624 5626 5626 5627 5625 5622 5620 5620 5616
5666 5676 5664 5643 5650 5642 5628 5619 5616 5608 5602 5597 5593 5592 5589 5585 5581 5582 5581 5580 5577 5575 5574 5575 5575 5575 5577 5580 5580 5581 5583 5585 5588 5592 5599 5605 5609 5613 5616 5616 5614 5613 5613 5611
5651 5654 5655 5644 5638 5633 5626 5606 5603 5599 5598 5597 5594 5590 5589 5585 5579 5572 5568 5565 5561 5558 5556 5554 5553 5553 5554 5557 5557 5558 5561 5563 5567 5571 5577 5584 5590 5596 5601 5604 5604 5605 5606 5604
5648 5645 5636 5619 5626 5631 5620 5601 5593 5590 5587 5584 5578 5569 5574 5571 5563 5557 5553 5549 5545 5542 5538 5535 5532 5528 5529 5533 5533 5534 5537 5541 5544 5548 5555 5562 5570 5579 5587 5591 5595 5596 5598 5597
5637 5631 5617 5607 5615 5619 5590 5579 5584 5579 5572 5566 5556 5552 5556 5551 5544 5538 5534 5530 5526 5521 5520 5520 5514 5506 5507 5512 5512 5514 5517 5520 5523 5527 5534 5542 5551 5560 5569 5578 5583 5585 5588 5589
5620 5616 5603 5603 5600 5587 5576 5577 5574 5569 5560 5551 5545 5540 5534 5529 5525 5521 5515 5510 5504 5499 5501 5502 5497 5490 5491 5493 5496 5497 5499 5504 5509 5514 5521 5531 5537 5545 5553 5562 5571 5575 5577 5578
5604 5597 5595 5592 5588 5585 5577 5568 5562 5553 5545 5534 5526 5521 5516 5511 5507 5504 5501 5499 5496 5493 5494 5494 5491 5487 5486 5489 5489 5489 5490 5496 5502 5507 5512 5518 5524 5532 5539 5548 5558 5567 5569 5573
5594 5593 5589 5585 5580 5573 5563 5553 5546 5536 5525 5515 5506 5503 5500 5499 5497 5496 5496 5495 5494 5492 5492 5493 5491 5490 5488 5488 5486 5485 5485 5489 5493 5496 5501 5505 5510 5517 5524 5533 5545 5558 5563 5568
5586 5584 5579 5577 5569 5561 5551 5540 5528 5519 5509 5499 5493 5493 5491 5492 5493 5494 5495 5494 5492 5490 5491 5491 5490 5489 5488 5486 5482 5480 5481 5483 5484 5485 5489 5492 5495 5500 5507 5519 5532 5547 5562 5569
5577 5576 5565 5561 5556 5547 5535 5523 5511 5501 5497 5493 5487 5487 5489 5491 5492 5491 5491 5491 5489 5487 5487 5487 5485 5484 5482 5480 5477 5475 5475 5476 5476 5477 5479 5481 5483 5489 5498 5509 5527 5538 5552 5565
5575 5571 5560 5552 5543 5532 5520 5508 5499 5491 5486 5487 5487 5488 5490 5491 5491 5489 5487 5484 5481 5479 5477 5475 5474 5474 5473 5471 5470 5470 5470 5470 5470 5472 5473 5475 5478 5482 5493 5510 5526 5540 5551 5560
5571 5560 5549 5541 5529 5519 5506 5497 5490 5484 5483 5485 5487 5489 5489 5488 5486 5482 5477 5472 5467 5463 5461 5459 5459 5460 5460 5461 5462 5464 5464 5466 5468 5469 5472 5474 5477 5485 5497 5511 5527 5545 5551 5558
5564 5552 5540 5530 5518 5508 5497 5488 5484 5484 5485 5487 5488 5487 5484 5481 5479 5475 5470 5464 5457 5451 5446 5444 5446 5448 5449 5451 5454 5457 5459 5462 5465 5468 5472 5476 5482 5492 5502 5514 5531 5548 5554 5554
5553 5543 5533 5520 5509 5498 5487 5480 5479 5483 5486 5487 5489 5486 5482 5477 5474 5471 5467 5459 5450 5443 5437 5435 5436 5439 5441 5444 5447 5451 5455 5461 5465 5467 5472 5479 5487 5498 5509 5522 5536 5551 5559 5559
5542 5534 5525 5513 5503 5492 5482 5477 5478 5481 5484 5486 5485 5482 5479 5477 5475 5473 5469 5460 5449 5440 5434 5431 5432 5436 5437 5440 5444 5448 5454 5459 5466 5471 5475 5483 5494 5504 5516 5530 5544 5557 5562 5562
5535 5524 5512 5500 5491 5485 5481 5479 5480 5481 5482 5483 5481 5478 5476 5475 5474 5473 5469 5462 5453 5445 5438 5433 5432 5434 5436 5439 5443 5447 5453 5459 5465 5471 5479 5489 5501 5512 5524 5538 5551 5560 5563 5559
5531 5520 5509 5498 5487 5479 5477 5478 5480 5481 5482 5480 5477 5475 5474 5475 5475 5474 5471 5465 5458 5451 5445 5438 5434 5434 5436 5439 5446 5451 5456 5462 5468 5476 5486 5497 5509 5520 5532 5545 5556 5562 5563 5562
5527 5517 5505 5496 5487 5479 5477 5478 5479 5480 5479 5477 5475 5475 5476 5478 5478 5478 5477 5471 5463 5456 5451 5445 5442 5439 5440 5442 5448 5454 5460 5467 5475 5485 5496 5508 5520 5530 5541 5551 5560 5564 5565 5565
5523 5513 5503 5494 5487 5481 5478 5479 5479 5479 5478 5476 5474 5474 5477 5480 5482 5483 5483 5482 5476 5468 5461 5455 5452 5449 5448 5450 5454 5460 5467 5476 5486 5497 5509 5520 5530 5540 5549 5556 5562 5566 5567 5568
5518 5508 5499 5490 5486 5483 5480 5479 5479 5478 5478 5477 5477 5477 5480 5485 5488 5490 5491 5489 5486 5480 5475 5471 5467 5463 5461 5462 5465 5472 5480 5489 5501 5512 5523 5532 5540 5548 5556 5562 5567 5570 5571 5572
5513 5503 5494 5486 5482 5480 5479 5478 5478 5478 5478 5477 5478 5479 5482 5486 5489 5493 5498 5499 5497 5494 5492 5490 5485 5482 5480 5480 5484 5490 5499 5509 5519 5528 5537 5545 5552 5559 5564 5568 5572 5575 5575 5575
5508 5499 5491 5483 5479 5478 5476 5478 5479 5479 5479 5480 5481 5483 5486 5492 5498 5499 5501 5505 5508 5508 5511 5509 5504 5502 5502 5504 5508 5514 5522 5531 5539 5546 5553 5560 5565 5569 5571 5573 5575 5576 5576 5577
5503 5494 5488 5483 5478 5476 5471 5473 5478 5480 5483 5486 5488 5491 5493 5494 5497 5503 5507 5513 5517 5521 5525 5526 5525 5524 5524 5527 5532 5537 5544 5551 5558 5564 5569 5572 5574 5575 5575 5576 5576 5577 5577 5578
5498 5490 5484 5477 5471 5469 5468 5469 5472 5477 5481 5487 5492 5495 5497 5499 5503 5507 5512 5519 5526 5531 5535 5538 5539 5540 5542 5543 5546 5550 5556 5562 5568 5572 5575 5576 5577 5577 5577 5577 5577 5577 5578 5579
5494 5487 5482 5478 5473 5470 5468 5468 5470 5475 5479 5485 5491 5495 5497 5500 5505 5510 5516 5523 5531 5538 5542 5544 5545 5547 5549 5552 5554 5558 5562 5566 5571 5573 5575 5576 5576 5576 5576 5576 5576 5577 5578 5579